This is the latest recevied weather packets stored in our database for station/object F1PPH-1. If no packets are shown the sender has not sent any weather packets the latest 10 day(s).
| Time | Temp. | Humidity | Pressure | Rain* | Wind** | Luminosity | Snow |
|---|---|---|---|---|---|---|---|
| 1777905122 | 20° C | 56% | 1005.5 hPa | - | - | - | - |
| 1777901522 | 20.56° C | 56% | 1005.6 hPa | - | - | - | - |
| 1777897921 | 21.11° C | 56% | 1005.4 hPa | - | - | - | - |
| 1777894323 | 20.56° C | 56% | 1005.6 hPa | - | - | - | - |
| 1777888561 | 20° C | 56% | 1006.3 hPa | - | - | - | - |
| 1777888560 | 20° C | 56% | 1006.3 hPa | - | - | - | - |
| 1777882691 | 17.78° C | 56% | 1006.1 hPa | - | - | - | - |
| 1777879810 | 16.67° C | 56% | 1006.1 hPa | - | - | - | - |
| 1777870449 | 14.44° C | 55% | 1005.3 hPa | - | - | - | - |
| 1777867566 | 13.89° C | 55% | 1005.4 hPa | - | - | - | - |
| 1777863966 | 15° C | 54% | 1005.5 hPa | - | - | - | - |
| 1777860366 | 15° C | 54% | 1005.4 hPa | - | - | - | - |
| 1777856766 | 15° C | 54% | 1005.5 hPa | - | - | - | - |
| 1777853165 | 16.11° C | 53% | 1005.6 hPa | - | - | - | - |
| 1777849565 | 16.67° C | 52% | 1005.9 hPa | - | - | - | - |
| 1777845964 | 17.22° C | 52% | 1005.7 hPa | - | - | - | - |
| 1777842364 | 18.33° C | 51% | 1005.9 hPa | - | - | - | - |
| 1777835163 | 21.67° C | 49% | 1004.4 hPa | - | - | - | - |
| 1777824363 | 22.22° C | 49% | 1004 hPa | - | - | - | - |
| 1777820762 | 22.22° C | 49% | 1004.7 hPa | - | - | - | - |
| 1777817162 | 27.22° C | 47% | 1004.4 hPa | - | - | - | - |
| 1777813561 | 29.44° C | 48% | 1004.7 hPa | - | - | - | - |
| 1777806361 | 22.22° C | 54% | 1005.8 hPa | - | - | - | - |
| 1777802761 | 20° C | 55% | 1005.8 hPa | - | - | - | - |
| 1777799160 | 17.78° C | 55% | 1006.2 hPa | - | - | - | - |
* Rain since midnight (hover to see other rain measurements)
** Current wind speed in m/s (hover to see current wind gust speed)